Wind_Speed
9 5 3 6 9 12 12 13 16 15 10 7 4 6 8 7 10 10 12 13 5 6 10 12 18 17 15 13 14 24 27 25 28 28 29 32 36 40 41 46 49 49 54 58 57 54 52 49 47 47 47 44 41 38 37 38 40 42 43 45 46 46 46 47 48 47 46 46 45 45 45 45 43 41 40 40 40 41 42 41 39 38 37 35 35 34
5 6 7 12 14 13 12 11 12 9 6 6 6 8 9 8 13 12 12 15 5 3 9 10 17 20 17 14 13 19 18 17 24 27 29 33 34 38 42 46 49 50 54 56 55 53 51 49 47 46 45 42 41 39 38 38 38 39 40 43 45 46 48 48 49 49 47 46 44 44 43 42 42 40 40 39 40 41 43 43 41 39 38 37 36 36
3 5 9 14 13 8 7 4 4 6 6 7 6 6 8 6 10 11 12 15 5 3 8 8 16 18 14 15 12 14 16 20 30 33 35 38 34 36 42 45 48 50 52 54 54 51 49 48 45 44 43 42 41 39 37 36 35 36 38 41 43 46 48 49 50 50 47 45 44 43 42 40 40 39 39 39 39 40 42 43 42 40 39 38 38 37
5 6 12 17 12 7 7 5 3 5 4 6 6 6 8 4 6 9 7 8 4 4 7 9 16 14 11 15 12 17 24 24 31 38 41 42 39 43 47 47 47 48 51 54 53 51 50 47 44 43 42 41 38 36 34 34 34 35 36 38 41 45 47 49 50 49 46 44 44 44 43 41 40 39 38 39 40 41 42 42 42 41 41 40 39 38
8 6 8 10 8 8 9 8 5 5 7 9 10 8 10 9 11 12 5 6 6 4 7 9 15 12 8 12 9 12 20 19 25 32 34 40 47 50 47 44 46 49 52 53 53 51 49 48 45 42 41 39 37 36 34 33 34 35 35 37 40 43 46 48 49 48 46 45 45 45 44 43 42 41 40 41 42 43 42 42 43 43 43 42 41 39
9 8 5 4 6 8 8 7 6 7 9 11 8 11 16 16 13 13 8 7 6 5 5 3 9 10 4 9 7 6 7 10 16 18 24 37 45 42 38 41 46 48 49 50 50 49 48 48 45 42 41 39 38 36 33 32 32 34 35 37 39 42 44 46 47 46 45 45 46 46 46 46 45 44 44 43 41 40 40 41 43 44 43 43 42 41
5 8 8 7 7 7 6 6 7 10 9 10 6 12 16 14 10 11 8 4 2 4 4 2 2 10 4 5 7 8 6 9 11 11 20 31 33 33 37 42 43 43 45 45 45 43 45 46 43 40 38 36 35 32 29 30 31 32 35 36 39 40 42 44 45 45 45 45 46 46 46 45 44 44 43 40 37 36 37 40 42 43 43 43 42 42
3 4 5 5 4 5 5 7 8 11 7 7 5 9 10 9 8 8 5 4 4 3 4 1 4 7 11 4 8 10 9 10 12 13 16 20 26 34 40 42 39 38 39 39 40 38 40 45 42 37 35 33 30 24 23 26 28 30 33 35 37 38 40 42 42 43 43 44 44 45 45 45 44 42 39 37 36 36 38 40 41 42 43 43 43 43
4 3 5 5 3 5 7 7 6 11 7 5 1 4 6 5 5 4 5 5 2 4 4 4 5 3 12 7 4 5 7 9 13 14 12 14 24 33 36 38 36 33 32 34 38 39 39 43 41 37 34 30 24 19 19 22 24 27 30 33 36 37 38 39 40 42 42 42 42 43 43 44 43 41 39 38 38 38 38 40 41 42 42 43 43 44
2 3 5 7 5 5 8 5 6 12 8 3 4 4 4 3 2 4 4 3 2 4 6 5 6 3 11 8 2 2 3 7 10 10 9 13 23 30 32 33 32 30 31 33 37 40 40 40 38 33 30 26 20 16 17 19 21 24 27 30 33 35 36 37 39 40 40 41 41 42 43 43 41 41 41 41 41 40 40 40 41 41 42 43 43 44
6 2 4 5 8 7 5 1 3 9 6 2 2 3 6 4 4 4 0 3 2 7 6 10 11 6 7 6 4 3 4 6 6 5 7 11 18 27 29 29 29 29 32 35 38 42 41 39 35 30 27 23 18 15 16 18 20 23 25 28 31 32 34 36 37 38 39 39 40 41 41 41 40 41 42 43 43 42 41 41 41 41 41 42 42 43
5 3 2 5 10 7 4 1 1 1 2 1 1 2 5 5 4 5 4 3 2 9 5 11 13 8 7 7 3 5 6 6 6 4 7 8 13 24 28 29 31 31 33 36 38 40 40 37 33 28 24 21 18 16 17 18 20 22 24 26 29 32 33 35 35 36 37 38 39 40 40 40 40 40 41 42 42 42 42 41 41 41 41 41 42 43
3 6 4 1 6 9 6 2 3 4 2 3 2 1 2 4 4 3 3 1 4 9 5 8 8 5 11 10 3 7 11 9 8 8 10 11 15 25 29 30 31 32 36 38 36 39 38 35 31 28 24 19 18 17 16 18 19 21 23 25 28 30 32 33 34 35 36 38 39 39 40 40 40 41 41 42 42 42 41 40 41 41 41 42 42 43
4 4 1 2 4 9 9 4 3 2 3 6 5 4 3 1 2 4 4 2 5 7 3 3 5 4 10 8 6 12 13 10 7 10 16 18 20 26 27 29 31 32 39 41 39 40 38 33 28 26 24 19 18 19 17 17 17 19 22 25 27 30 31 32 33 34 35 37 37 38 38 39 40 41 42 43 43 42 41 41 40 40 40 41 42 42
3 6 3 4 3 8 10 8 8 4 4 6 6 6 5 4 4 5 4 5 8 6 3 1 4 5 6 4 6 10 8 9 10 13 16 16 19 23 23 23 24 26 31 33 33 34 34 30 25 24 24 20 19 20 19 16 15 17 20 23 26 29 31 32 33 34 35 35 36 37 37 38 40 41 42 42 42 41 41 40 39 39 39 39 40 41
4 8 6 3 1 9 8 7 6 5 1 4 3 5 3 5 6 5 7 9 8 4 3 3 4 5 5 6 8 7 7 11 14 14 11 9 10 12 11 10 13 19 23 25 25 26 28 26 22 22 23 20 19 21 20 17 14 14 18 21 24 28 29 31 32 33 34 34 35 36 36 38 39 41 42 42 41 41 41 40 39 39 38 38 40 41
4 6 2 2 2 5 4 4 3 4 1 0 3 3 4 3 6 4 8 7 5 6 6 6 8 6 4 9 9 3 4 8 9 7 7 7 3 1 4 8 13 20 25 26 26 26 25 23 20 20 21 19 17 19 19 18 15 15 18 22 24 26 28 31 33 33 33 34 35 36 37 38 39 41 41 41 41 41 41 41 41 39 39 39 40 41
5 5 5 4 5 5 3 3 4 3 3 3 3 4 2 1 3 3 3 3 4 8 7 8 13 11 6 8 6 3 4 8 8 6 6 7 3 1 7 10 14 20 23 25 25 25 26 25 21 19 16 15 15 16 17 18 18 18 20 23 25 25 26 29 32 34 34 34 34 36 37 39 40 40 40 40 40 41 42 42 42 41 41 41 41 42
2 3 7 6 5 2 2 3 5 5 3 5 4 2 1 2 4 2 2 3 6 9 6 7 13 11 7 10 10 9 9 10 11 7 6 8 5 3 8 12 16 20 23 26 25 21 20 22 20 15 11 9 10 12 14 17 20 21 22 24 25 25 26 28 31 34 36 35 35 36 38 40 41 41 41 41 42 43 43 43 42 42 42 42 43 43
0 2 5 5 3 2 3 1 5 6 3 1 2 3 0 3 4 3 3 2 5 9 8 8 10 8 7 9 12 15 11 8 9 7 6 9 6 2 9 13 18 22 26 29 28 22 16 17 18 15 11 9 9 10 12 15 19 21 24 26 25 25 27 28 31 35 38 38 37 38 40 42 44 44 44 44 45 45 45 44 44 44 44 44 45 45
1 2 4 4 5 3 1 4 6 7 4 2 3 4 4 3 2 3 3 2 4 8 8 9 9 7 4 5 13 18 10 7 8 7 7 9 6 5 13 20 23 25 26 27 27 23 15 11 13 12 11 11 11 13 17 19 21 22 24 26 26 27 28 30 32 34 36 38 38 39 41 43 45 46 47 47 47 47 46 46 46 46 46 46 46 46
1 3 4 4 4 5 9 8 8 8 7 5 5 5 5 5 3 6 7 5 5 7 8 9 9 7 3 5 15 17 8 5 7 7 7 9 10 15 23 25 24 23 21 20 19 19 17 14 13 11 10 11 14 18 23 26 28 27 26 27 28 29 31 32 32 32 33 36 38 40 42 45 47 48 50 50 50 50 48 48 48 48 48 48 48 47
4 2 3 5 7 10 14 11 7 8 6 2 3 4 5 5 4 6 9 8 7 8 8 9 10 6 5 7 14 15 12 9 10 10 9 11 16 21 25 23 20 19 21 23 24 25 24 22 20 18 17 19 22 24 26 29 32 30 28 28 29 30 31 33 34 34 35 38 39 41 43 46 49 51 52 53 53 52 50 49 49 50 50 50 49 48
3 2 3 6 5 6 11 12 9 6 4 3 5 6 8 8 9 11 10 7 7 8 7 9 10 5 4 7 12 14 17 17 15 14 11 12 19 21 21 22 21 22 26 30 33 35 32 28 27 26 27 28 29 29 31 33 34 33 30 29 30 31 32 34 36 37 39 41 42 44 46 49 51 53 54 55 55 54 52 51 51 52 52 51 51 50
3 2 3 5 4 4 6 8 9 5 4 4 7 9 11 13 15 13 9 7 8 10 12 12 11 7 3 6 9 12 16 15 16 19 14 11 17 20 18 20 22 23 25 28 30 33 33 33 33 33 33 32 33 35 38 39 38 36 35 35 36 37 36 34 36 39 41 43 45 48 49 50 52 55 56 56 56 56 55 54 53 53 53 53 53 52
2 3 3 4 6 6 7 6 6 4 2 2 4 8 11 14 15 13 9 9 10 12 15 14 12 9 6 7 10 13 17 18 20 24 18 12 16 20 16 15 17 19 23 25 26 26 28 31 33 34 34 35 36 37 38 39 39 40 41 42 41 40 37 35 36 39 42 46 49 51 53 53 54 56 57 57 58 58 58 57 56 56 55 55 54 54
0 3 6 9 10 10 11 11 9 8 8 8 8 9 10 10 12 10 8 10 12 12 13 13 13 14 11 10 13 15 18 21 22 24 21 16 19 22 21 21 23 25 26 27 27 26 26 27 28 30 31 31 33 34 34 34 36 40 43 45 44 42 41 41 42 44 48 51 54 55 56 56 55 55 56 58 59 59 59 59 59 58 57 56 56 56
3 3 8 14 15 15 16 18 16 15 15 16 17 16 15 14 13 12 12 13 12 11 12 12 13 15 13 12 16 18 18 18 16 16 19 25 29 30 31 31 31 31 32 33 33 33 33 32 31 32 31 30 30 31 31 31 32 35 40 43 45 46 47 48 49 51 54 55 56 58 59 58 55 54 56 58 59 59 60 60 60 59 58 57 57 57
3 4 7 12 15 15 16 18 18 17 16 16 17 18 20 20 20 19 20 19 16 14 15 15 16 19 15 12 13 12 10 11 13 15 22 30 33 33 33 33 33 34 35 35 36 36 36 36 36 35 35 35 33 31 32 32 32 33 36 38 40 42 44 47 50 52 55 57 56 56 56 57 54 53 55 58 59 59 59 59 60 59 58 58 57 57
4 3 5 9 10 10 12 15 15 16 16 16 17 19 21 22 24 24 24 23 21 21 21 20 22 21 12 7 7 10 14 15 17 22 26 29 29 29 29 30 30 32 33 34 35 36 37 37 38 38 39 39 39 38 37 36 36 36 36 37 38 40 41 44 47 50 53 55 56 54 53 54 55 54 55 56 57 58 58 58 58 58 58 57 56 56
4 3 4 6 7 8 11 13 13 13 14 15 16 17 18 20 21 21 20 19 20 21 22 24 23 15 7 9 9 12 18 20 20 22 24 25 26 26 26 27 28 29 31 33 34 36 38 38 39 41 41 41 42 42 42 41 39 38 38 38 39 41 42 44 46 48 51 52 51 52 53 55 56 55 55 54 55 56 56 56 57 57 57 56 56 55
3 3 6 7 6 7 9 12 13 12 13 14 15 17 19 18 17 16 17 17 17 17 19 19 14 6 7 10 9 13 18 17 14 15 19 23 26 27 25 25 27 29 31 33 35 37 39 40 40 41 42 43 43 43 43 44 44 43 42 41 40 40 42 45 46 48 51 50 48 49 52 55 56 55 54 53 53 54 55 56 56 57 56 56 55 54
3 4 4 5 6 8 11 14 12 10 12 13 12 12 14 14 13 13 13 13 10 8 7 5 2 4 7 10 11 14 14 13 12 11 15 21 25 26 26 26 27 30 31 33 36 37 39 40 40 41 43 43 44 44 44 45 45 46 45 44 42 41 40 40 41 42 45 46 46 46 48 51 54 54 53 52 52 53 55 56 56 56 56 55 54 52
7 7 5 5 6 9 14 14 10 9 13 10 3 4 2 2 4 4 3 6 9 7 5 5 4 5 7 9 11 11 11 14 17 11 11 22 27 27 28 28 29 32 33 34 36 37 39 40 40 42 43 44 45 45 45 46 46 47 46 46 44 43 43 39 35 35 38 40 42 44 44 46 49 51 52 52 52 53 54 55 55 55 54 53 52 51
10 9 6 5 5 7 8 8 8 11 10 2 5 5 3 4 8 7 6 8 10 9 9 8 7 7 8 8 9 9 12 18 20 13 10 23 31 29 28 29 31 33 34 35 37 37 38 39 40 43 44 44 45 46 46 46 47 47 47 47 46 45 45 44 39 36 35 36 38 40 42 43 44 47 49 50 51 52 53 54 53 53 52 52 52 51
9 7 4 3 4 5 4 5 8 9 4 2 4 6 4 4 7 6 5 7 8 6 6 6 6 5 6 8 9 12 17 20 17 9 8 21 30 29 28 29 30 32 33 34 36 36 36 36 38 41 43 43 44 45 46 46 46 47 47 47 47 46 46 45 43 40 38 35 35 36 38 39 41 43 45 47 49 50 51 51 51 50 50 50 50 49
10 7 4 4 5 5 6 7 8 8 5 1 1 6 3 1 3 3 2 2 4 2 2 3 2 3 4 7 12 16 20 19 11 4 7 20 28 28 27 27 29 31 33 33 34 35 35 36 38 40 41 43 44 44 45 46 45 46 47 46 46 45 45 45 45 43 41 37 34 33 34 35 36 39 41 43 46 48 49 49 48 49 49 49 49 48
9 8 6 5 5 3 5 5 4 6 4 1 2 5 5 7 6 3 3 2 3 0 3 3 0 2 1 5 11 14 17 14 8 7 16 27 31 29 29 29 29 31 33 34 34 36 37 39 40 41 41 43 44 44 45 46 45 45 46 46 45 44 43 44 46 46 45 41 36 31 30 31 32 34 36 39 42 44 46 47 47 48 47 47 48 47
1 3 3 4 4 3 5 5 4 5 3 3 3 6 7 12 8 4 4 3 4 2 6 5 2 3 3 4 7 8 10 9 6 12 25 33 33 31 30 31 31 32 33 33 34 36 38 40 41 42 43 44 45 45 46 46 46 46 46 45 44 42 41 42 45 46 46 44 40 34 31 28 28 29 32 35 38 40 43 44 45 46 46 46 46 45
4 1 2 4 5 5 5 6 5 4 2 2 2 5 9 13 6 2 6 3 3 4 9 7 4 6 5 5 5 3 5 6 8 18 30 33 32 31 29 30 32 33 33 33 34 36 39 40 41 43 45 45 46 47 47 47 46 46 46 46 44 42 40 39 41 43 45 45 42 39 35 30 28 27 28 30 33 36 39 41 43 44 45 44 44 43
1 2 3 4 6 7 7 6 4 3 3 1 3 7 12 11 3 4 7 4 6 9 8 7 6 7 5 6 6 3 7 12 16 25 32 31 30 29 29 30 31 32 32 34 35 37 39 41 41 43 44 45 46 47 47 47 47 46 46 46 46 44 40 39 39 39 41 43 43 41 38 35 31 28 27 27 30 33 36 38 40 42 43 43 43 42
1 2 2 3 4 3 4 4 4 5 2 2 3 10 11 5 2 6 7 9 14 14 9 9 8 8 7 9 10 11 15 18 20 24 28 28 28 29 30 31 31 32 32 33 34 36 39 41 43 44 45 45 46 47 47 47 47 46 46 46 46 45 43 41 40 38 38 40 41 41 40 38 35 31 28 27 28 31 34 36 38 40 41 41 42 41
2 2 2 2 3 2 2 3 5 6 2 5 8 9 5 1 6 12 13 14 15 13 12 12 11 10 11 12 14 17 19 21 23 24 25 27 28 29 31 32 32 33 33 34 36 36 38 41 44 46 46 47 47 47 47 47 47 47 47 47 46 46 45 44 42 40 38 37 38 39 40 40 39 35 30 27 27 28 32 34 36 38 39 40 40 40
3 3 3 3 3 3 4 5 5 4 4 11 10 5 7 13 19 20 17 15 15 14 14 14 13 14 14 14 16 19 21 23 26 26 26 28 29 30 31 32 32 34 35 37 38 38 39 42 45 47 48 48 47 47 47 47 48 49 48 47 46 45 46 46 45 42 40 38 37 37 37 38 39 38 34 29 27 27 29 32 35 36 37 38 39 40
4 4 4 4 5 4 5 6 6 6 14 24 23 19 22 26 27 24 20 18 19 18 15 14 16 18 17 15 16 18 21 25 27 27 28 30 30 31 32 32 34 35 36 38 39 39 40 43 46 50 52 51 49 48 47 47 48 50 51 49 47 46 46 46 46 45 43 41 38 37 36 35 37 38 37 34 30 28 28 31 33 36 38 39 40 40
5 6 2 1 4 5 4 9 12 13 19 28 30 29 29 29 28 26 22 21 23 22 18 16 18 19 18 18 18 20 23 26 27 29 30 31 32 33 33 34 35 36 38 40 41 41 42 45 48 51 54 55 54 51 50 48 48 49 51 51 49 48 46 45 47 48 46 44 40 38 37 35 35 36 37 36 34 31 29 30 32 35 38 39 40 41
6 8 5 3 6 6 5 9 11 12 18 25 26 27 28 30 30 29 26 27 28 26 21 18 17 19 20 21 21 22 24 26 28 30 31 31 33 35 35 36 37 38 40 42 43 43 43 45 47 50 54 57 58 56 54 52 50 49 50 50 50 50 49 47 46 48 48 46 42 39 38 37 36 36 37 37 36 33 32 32 33 35 38 40 41 41
5 5 5 6 7 7 7 11 14 19 23 26 27 27 29 32 34 32 30 29 28 25 22 20 20 21 23 25 25 24 26 28 30 31 31 32 34 36 38 40 40 40 42 44 44 45 46 47 49 50 52 56 58 59 58 56 54 52 50 49 50 51 51 50 47 47 48 48 45 41 39 38 38 38 37 37 37 36 36 36 36 37 39 41 41 42
6 4 4 4 5 6 8 11 15 18 19 21 28 31 30 29 29 26 25 25 25 24 23 23 24 25 26 27 27 26 28 32 33 31 31 34 37 39 42 43 43 44 46 46 45 45 46 50 52 52 54 56 58 58 59 59 59 56 53 51 50 50 52 52 50 48 48 48 47 44 42 40 39 39 39 38 38 39 39 39 38 39 40 41 41 41
6 6 7 5 4 6 8 12 16 13 8 13 24 30 28 25 22 20 21 21 22 23 24 25 29 30 29 28 29 29 31 34 35 33 32 36 40 43 45 46 46 48 49 48 47 46 47 50 51 52 56 59 59 58 58 59 60 59 57 54 53 52 52 52 51 50 48 47 47 46 44 42 42 41 40 40 39 40 40 40 40 40 40 41 41 41
12 11 10 8 7 10 16 21 20 12 7 16 27 30 27 25 21 20 21 22 22 24 24 26 29 30 31 32 32 32 32 34 35 34 35 39 42 44 46 47 47 49 51 51 50 50 50 52 53 54 58 61 60 59 59 59 59 60 59 56 54 52 51 49 48 49 48 46 46 46 44 43 44 43 41 40 40 40 40 40 41 41 41 41 42 42
Wind_Direction
174 174 159 194 214 219 217 204 215 231 242 254 242 239 246 254 262 254 262 266 250 273 267 256 268 271 267 261 260 266 270 273 275 271 266 265 266 268 269 270 271 272 275 282 285 283 282 281 280 277 274 274 273 270 266 262 260 259 257 253 249 246 245 244 242 240 237 236 234 232 232 232 232 231 232 232 231 231 230 230 231 231 231 231 231 231
175 200 210 213 219 220 222 218 225 244 267 263 247 261 260 247 263 259 261 272 252 236 263 261 273 274 268 266 259 261 262 259 264 268 269 267 265 267 268 270 272 274 277 281 283 284 283 281 279 277 275 274 273 272 270 266 264 260 256 253 249 246 244 244 244 242 239 238 238 237 237 236 233 232 233 233 232 230 229 228 228 229 230 230 231 232
214 231 231 228 234 241 248 235 220 237 239 244 243 263 264 248 273 268 250 265 255 219 271 275 271 272 272 268 254 249 249 247 254 259 265 268 268 266 267 269 272 275 277 279 282 285 284 283 281 279 276 275 274 274 272 269 265 259 254 251 248 245 244 244 243 242 240 239 239 239 239 238 234 232 234 234 234 231 229 228 227 228 229 230 230 231
235 239 233 232 237 242 260 250 217 260 244 225 224 244 261 246 264 264 244 272 279 225 269 286 277 274 268 265 253 240 245 248 254 257 261 265 266 265 264 266 270 273 276 278 281 285 285 283 281 280 278 277 276 273 270 267 263 257 253 251 247 245 244 243 243 241 238 236 236 235 235 234 232 231 232 233 233 231 230 229 228 229 229 229 230 231
245 243 230 227 224 217 240 246 226 264 263 234 218 223 253 245 240 251 268 325 319 277 279 293 292 284 231 238 249 239 244 247 250 255 261 262 262 264 266 267 269 270 274 277 281 285 286 282 280 279 278 278 276 273 270 269 265 260 255 251 248 246 244 243 242 239 235 232 231 231 229 227 227 228 229 230 230 229 229 229 228 228 228 229 230 230
258 252 228 194 213 212 222 241 211 210 253 259 221 206 238 247 247 257 284 339 339 302 301 323 304 298 194 191 232 246 240 242 244 249 255 257 259 265 269 270 270 272 275 278 281 286 288 284 280 279 279 279 278 276 275 271 266 261 256 252 248 246 244 242 240 237 234 232 230 229 228 226 225 226 228 230 231 231 230 230 229 228 228 228 229 230
257 244 223 204 215 201 202 252 220 196 240 275 229 202 228 244 251 258 271 306 276 263 299 65 260 285 284 160 209 239 239 244 243 240 246 252 259 266 269 270 272 275 279 281 284 287 289 286 282 283 284 284 284 283 279 270 262 257 253 251 249 247 245 242 239 236 234 232 231 231 232 232 231 232 234 235 236 236 234 233 231 229 228 228 229 230
208 241 242 229 213 166 187 250 218 179 209 270 240 200 213 229 239 238 227 228 240 278 293 184 154 271 286 229 191 216 229 247 249 243 248 255 261 263 265 270 275 278 281 284 286 286 288 287 286 288 291 291 289 286 275 266 259 254 251 250 248 246 245 242 239 237 235 233 232 232 233 234 235 237 240 240 238 238 236 234 233 231 230 229 229 230
158 202 227 200 171 180 210 234 182 160 199 256 159 156 186 201 211 172 167 207 260 347 284 216 143 252 282 268 176 208 228 247 253 247 252 259 261 265 268 273 278 281 283 284 285 286 287 287 288 292 295 293 287 279 269 262 257 253 249 247 246 244 243 241 239 237 236 235 234 234 234 234 236 237 239 239 239 239 237 235 233 232 231 230 230 230
198 185 180 159 162 212 224 231 167 166 204 239 114 94 64 71 79 110 169 175 74 312 260 196 160 215 280 280 112 99 225 238 254 254 256 256 260 267 272 277 281 282 283 285 285 287 287 289 291 294 297 292 280 270 262 256 252 249 246 244 243 243 242 240 239 237 236 235 234 233 234 235 235 235 235 236 236 238 238 237 235 233 232 231 230 231
244 175 126 176 207 211 195 174 160 181 212 329 70 31 19 13 22 56 197 94 81 280 246 180 180 187 281 283 153 184 218 208 229 254 269 267 266 269 272 277 282 283 287 290 289 288 288 290 294 297 297 289 274 263 255 246 244 244 242 242 242 242 241 240 238 237 235 235 234 234 234 235 236 236 236 236 235 236 237 237 236 235 234 233 232 232
258 197 198 223 213 197 158 135 358 194 208 357 26 16 2 324 355 25 347 57 169 264 238 182 181 172 240 258 192 251 253 210 207 218 258 275 276 276 275 275 279 286 290 290 290 291 292 293 297 300 299 286 267 259 251 241 238 239 240 241 241 240 240 239 238 237 236 235 235 235 235 235 236 237 237 238 238 239 238 238 237 236 235 234 233 233
282 220 236 258 204 190 168 187 321 354 91 125 135 78 352 313 340 352 310 87 212 256 241 186 174 185 244 251 232 257 262 249 224 212 238 253 261 269 273 276 281 287 288 288 291 294 297 299 300 303 301 286 265 255 249 243 241 241 242 242 242 243 242 240 238 237 237 236 236 236 235 235 236 237 238 239 239 240 240 239 238 237 235 234 233 233
292 271 204 82 240 198 163 156 236 266 163 156 157 159 164 200 272 271 264 269 260 268 274 184 172 243 271 269 227 233 254 265 237 226 242 249 256 266 274 281 287 288 288 292 296 297 298 299 301 304 300 285 264 252 244 243 246 247 248 247 246 245 243 241 239 238 238 237 237 237 237 237 238 238 239 239 240 240 241 241 240 240 238 237 236 236
255 294 214 175 234 177 173 199 202 165 157 186 165 143 163 180 212 237 236 258 269 280 308 254 187 225 267 285 234 231 267 300 283 267 265 267 270 273 279 289 300 304 303 306 304 300 300 300 299 301 297 282 263 251 244 241 247 253 254 253 251 248 244 242 241 240 239 238 238 237 238 238 239 240 241 242 242 242 242 242 242 242 241 241 241 240
204 265 244 218 145 151 177 231 193 120 68 239 131 112 209 202 189 228 239 240 258 290 289 238 224 228 246 283 277 262 277 285 283 284 285 286 280 274 285 311 336 342 341 337 327 315 309 304 299 296 293 285 264 250 245 241 242 252 256 255 255 253 250 248 246 243 241 239 239 238 239 239 239 240 240 241 242 242 242 243 242 243 242 243 243 243
220 254 250 24 13 171 210 275 195 164 194 257 120 176 243 173 153 225 257 247 247 258 246 235 258 277 289 288 290 296 282 278 291 300 281 273 260 269 339 1 6 5 4 358 350 340 327 314 299 288 286 283 265 248 246 247 246 252 257 257 256 254 253 252 249 246 243 240 240 239 239 239 238 238 238 238 238 240 241 242 242 242 242 242 243 244
238 266 266 275 281 259 267 304 283 251 165 142 204 226 267 48 137 185 253 272 244 247 244 235 255 273 290 282 290 7 324 289 284 289 281 273 253 31 5 7 4 4 4 0 356 348 337 328 314 299 292 282 263 251 252 255 255 257 260 259 257 257 259 258 254 249 245 242 241 240 239 238 237 236 236 236 237 238 239 240 240 240 240 240 241 242
243 278 275 269 264 282 9 352 303 290 186 186 252 293 88 252 257 206 192 226 235 248 252 226 243 258 257 261 272 276 272 267 266 271 285 279 271 342 1 3 356 349 346 348 350 349 350 349 341 332 321 297 273 268 268 265 264 263 263 262 260 260 263 263 260 254 248 245 243 242 241 240 239 237 236 235 236 237 237 237 237 237 238 238 239 241
312 248 280 306 309 346 30 324 265 270 251 207 293 322 276 222 233 222 207 191 230 251 258 238 235 237 235 251 269 269 251 232 248 255 259 264 258 345 353 348 341 335 333 333 332 334 350 0 355 354 347 326 310 301 292 284 278 273 270 268 266 265 264 263 261 255 250 247 245 245 243 242 241 240 239 238 237 237 236 236 236 236 237 238 239 240
77 223 249 287 305 326 279 216 219 232 232 192 217 241 247 235 251 264 238 191 232 252 255 250 242 229 229 261 266 266 250 208 231 238 240 257 257 302 324 327 325 324 326 323 318 315 314 328 341 346 344 338 334 327 318 306 293 284 279 276 271 267 265 263 262 258 253 249 248 247 245 243 243 242 242 241 241 240 239 239 238 238 238 238 239 240
187 224 218 226 247 260 254 231 193 190 189 175 186 209 227 229 255 277 259 227 226 245 246 252 257 239 210 251 262 266 257 204 223 230 239 262 277 300 312 317 316 316 317 315 312 310 308 314 324 325 326 330 329 327 324 313 299 288 285 284 276 269 267 265 263 262 259 254 251 250 248 245 245 245 244 243 242 241 240 240 240 239 240 240 239 240
163 152 206 221 220 240 258 256 213 190 191 203 204 213 235 225 207 238 250 243 240 252 254 257 263 242 184 235 265 275 278 270 257 242 244 268 284 299 306 304 303 306 310 313 313 311 309 308 308 306 305 306 309 314 318 315 302 289 284 284 280 278 276 271 266 264 261 257 255 254 251 248 247 246 245 244 243 241 240 239 239 240 241 241 241 241
140 105 233 244 245 254 269 277 263 217 197 265 252 228 232 232 230 235 243 252 256 258 262 262 259 237 175 238 264 276 282 284 274 256 251 271 282 289 291 289 289 293 298 301 301 303 308 311 310 308 304 299 299 304 312 313 303 290 283 283 282 283 284 282 276 270 263 260 259 257 254 252 250 248 247 245 244 242 241 240 240 240 242 242 243 243
200 195 224 250 272 276 269 274 274 245 186 222 247 238 235 235 242 252 256 264 262 246 245 256 258 245 224 256 269 275 279 281 279 274 265 263 276 280 277 280 285 291 299 304 305 310 319 325 325 323 319 315 310 309 312 311 304 292 286 286 286 283 282 284 284 280 274 268 264 259 257 255 254 252 250 248 246 244 243 242 241 242 242 243 244 244
238 227 219 248 260 259 258 256 267 272 223 221 252 243 244 241 240 250 256 254 253 242 238 248 258 256 251 264 273 280 286 288 288 286 277 263 280 293 299 306 319 332 338 339 337 335 329 325 324 324 323 323 322 321 320 315 308 299 292 290 288 284 282 284 286 285 284 280 272 265 260 257 256 255 254 252 249 247 245 244 243 243 243 244 245 245
244 245 233 242 250 254 263 264 271 286 280 281 281 260 258 257 245 246 249 247 255 256 247 246 256 262 259 265 275 278 282 284 287 292 301 319 332 341 358 12 16 16 11 7 6 2 354 345 342 338 332 326 323 322 321 317 311 305 301 297 294 292 293 294 292 290 289 286 279 270 263 259 258 259 258 256 252 249 247 246 245 244 244 244 245 245
188 254 243 244 250 251 261 268 270 275 270 269 275 271 268 268 257 249 248 248 256 264 258 250 256 264 261 259 266 270 274 283 297 317 342 7 17 19 24 26 24 19 16 14 13 9 6 3 0 358 353 346 336 327 322 318 312 306 303 301 300 300 300 299 297 294 292 287 280 273 266 261 261 262 261 257 252 249 248 247 246 246 246 245 245 246
198 261 248 248 257 253 259 269 268 270 271 268 270 270 269 268 263 258 256 254 255 257 263 264 261 262 265 266 272 287 314 329 346 9 25 31 28 24 23 21 17 13 9 8 6 4 2 1 358 357 357 355 351 344 336 330 323 317 309 301 298 297 298 299 299 296 293 288 283 279 271 264 263 263 259 256 252 250 249 248 248 247 247 247 247 247
221 260 249 255 270 267 266 271 269 269 271 270 268 266 266 266 265 264 264 265 265 265 267 271 268 265 279 319 337 2 11 7 10 20 30 31 25 22 21 17 12 9 5 3 1 360 359 358 357 357 355 355 353 351 348 342 336 331 322 311 302 296 295 298 297 295 293 290 287 283 275 267 266 264 259 256 254 251 250 249 248 247 247 248 248 247
241 278 319 308 295 279 273 270 265 262 264 269 271 267 265 267 268 270 273 274 273 271 270 271 269 271 320 0 5 14 15 15 17 21 24 23 18 18 17 13 9 5 2 0 358 357 357 357 357 356 355 354 353 352 351 347 342 337 331 323 315 305 298 295 290 288 289 290 289 285 276 269 266 264 261 258 255 252 250 249 248 247 247 247 247 246
273 293 321 313 284 271 271 270 272 277 277 274 272 269 267 266 265 265 265 263 265 271 275 276 277 301 351 346 353 10 13 13 11 17 22 18 13 13 10 6 4 359 357 357 355 354 354 354 353 352 351 350 350 351 351 349 345 341 338 334 329 321 308 297 290 289 289 289 289 284 278 272 267 263 261 259 255 252 249 247 247 246 245 245 245 245
238 261 281 277 277 279 275 276 286 297 289 274 270 276 274 269 270 269 266 272 288 301 294 290 337 15 346 346 1 8 9 2 348 2 27 21 11 7 2 357 355 354 352 352 351 351 350 349 348 347 347 346 346 347 347 346 344 342 341 341 340 338 328 311 298 295 295 293 289 283 279 274 267 263 262 258 254 251 248 245 245 244 244 244 243 243
231 241 248 247 264 273 277 288 299 287 276 271 299 9 11 3 351 338 320 345 3 26 64 85 67 25 4 10 9 357 352 344 330 328 22 22 11 2 356 351 348 348 348 347 347 347 346 345 344 343 342 342 341 341 342 342 342 340 340 342 343 346 345 335 318 307 304 301 293 286 281 276 269 265 262 257 252 250 246 245 244 244 243 243 241 241
247 247 247 236 246 264 277 290 280 266 262 242 69 53 84 85 58 68 82 48 31 44 64 60 44 30 15 5 358 343 332 332 327 315 344 5 4 356 349 345 343 343 343 343 343 343 343 342 341 339 339 339 338 338 338 338 339 337 337 340 342 344 347 346 339 331 323 312 300 290 284 278 273 267 262 256 252 249 246 245 244 243 243 242 241 241
237 247 250 229 241 259 251 241 252 267 268 127 66 26 27 36 32 49 83 62 42 48 63 49 31 25 4 344 343 339 330 327 323 302 317 347 352 350 343 339 337 338 338 339 340 340 340 340 338 337 337 336 336 336 336 336 336 335 335 337 338 340 343 346 346 344 338 327 314 300 289 282 276 269 263 257 253 249 247 246 245 244 243 242 241 240
218 231 241 238 239 240 245 246 258 279 285 190 358 354 0 332 339 338 331 61 67 40 61 72 29 359 354 338 334 337 336 331 317 278 327 341 342 340 337 333 332 333 334 336 338 337 336 336 335 336 335 334 334 335 335 335 335 333 333 334 335 336 338 342 345 345 343 338 328 314 300 290 282 274 267 262 257 253 250 248 246 245 243 241 240 239
208 220 227 249 253 255 276 279 274 277 268 170 269 279 262 258 247 217 240 216 115 280 237 166 157 304 328 332 331 339 343 338 322 310 329 335 335 334 333 330 330 332 333 334 335 334 334 334 333 334 333 332 332 334 335 334 333 332 331 332 333 333 333 334 337 341 342 341 336 325 310 299 290 281 272 266 261 257 255 252 249 246 244 242 241 240
189 224 212 243 265 279 283 276 272 272 230 157 230 241 258 278 266 202 234 214 127 213 229 183 197 240 210 288 318 346 352 341 319 315 324 329 329 329 329 327 328 330 331 332 333 332 331 331 331 330 331 331 331 332 333 332 332 331 330 329 329 330 330 328 328 332 335 337 337 332 321 309 299 288 278 271 266 262 258 254 251 248 245 242 241 241
15 338 211 245 256 259 265 263 270 274 223 160 248 265 298 305 302 262 272 252 117 244 223 185 220 238 221 279 302 357 352 318 297 308 317 321 321 322 324 323 324 327 328 329 331 330 330 330 329 329 329 330 330 330 330 330 329 329 329 328 327 326 326 325 324 325 326 329 333 334 330 322 310 299 290 281 274 266 260 256 252 248 245 242 241 239
329 263 236 240 240 245 254 259 271 266 235 220 259 289 318 329 325 259 273 300 338 297 239 200 243 255 252 286 290 280 292 292 293 302 310 314 314 315 316 316 320 324 326 327 329 330 329 328 328 327 327 327 328 327 328 328 326 325 325 325 324 324 323 320 318 319 318 320 325 329 331 328 321 312 303 292 279 269 262 257 252 249 246 243 240 238
224 244 244 208 207 231 233 239 280 279 211 115 317 311 332 357 223 260 290 309 310 294 250 226 253 264 270 280 277 278 288 295 298 299 305 308 307 307 311 315 318 320 322 325 327 329 329 328 327 327 325 325 326 326 326 326 323 322 321 320 321 322 320 315 312 312 312 312 315 320 324 326 324 319 310 298 284 272 265 259 254 251 247 244 241 238
230 261 277 211 199 257 239 239 271 261 206 48 1 339 358 61 258 286 301 301 292 275 248 243 256 270 280 281 283 289 294 298 300 301 302 303 302 305 309 314 316 317 319 322 323 325 326 326 326 327 325 325 325 325 325 324 321 319 317 316 317 319 317 314 309 306 305 305 306 309 313 317 319 317 311 303 292 278 268 261 256 251 247 244 242 239
259 237 243 234 236 248 236 238 233 214 282 327 327 298 276 280 282 288 291 286 280 269 254 250 260 274 280 281 288 296 298 299 301 302 301 300 301 304 307 310 313 315 317 319 320 321 322 322 323 324 324 324 325 325 324 324 322 318 315 314 315 314 312 312 309 303 299 298 299 300 302 306 309 310 309 305 296 283 272 264 258 253 249 246 243 240
246 219 218 237 250 225 201 234 264 286 298 298 291 278 279 284 287 290 285 274 273 271 255 248 264 278 283 285 288 291 293 297 299 299 297 297 298 300 303 306 309 311 314 316 317 317 317 318 320 321 321 322 324 324 324 323 321 317 314 313 314 312 309 308 306 303 299 295 293 294 295 297 298 301 303 303 297 286 276 267 260 255 251 247 244 241
266 265 256 179 252 256 241 252 268 278 277 275 274 275 277 281 287 291 285 274 274 273 258 252 268 280 287 289 285 283 288 294 296 294 294 295 296 298 301 303 305 307 311 313 313 314 315 316 317 318 319 320 321 323 323 322 320 317 313 312 312 310 306 303 302 301 298 295 292 289 288 289 289 291 294 297 294 288 280 271 264 258 253 250 246 243
271 254 240 238 255 264 263 252 250 253 258 264 270 274 276 281 286 286 282 279 280 274 263 262 273 281 287 288 284 282 287 291 292 292 293 294 294 296 299 301 303 306 308 310 311 311 311 312 313 315 316 317 319 320 319 319 318 316 313 310 308 306 303 300 297 296 295 294 291 287 283 282 282 283 286 288 289 288 282 275 268 260 254 251 247 244
261 228 213 235 244 238 248 262 264 263 263 268 273 275 276 280 283 283 282 280 274 267 264 271 280 283 286 289 287 287 291 294 294 294 294 294 295 296 299 302 304 305 307 309 310 309 309 310 310 310 312 314 316 316 315 315 315 315 312 309 305 303 301 298 295 292 290 290 289 285 280 278 277 278 279 281 282 282 281 277 271 264 260 257 252 248
252 246 213 219 243 254 264 272 271 271 272 272 274 277 280 281 283 285 281 270 259 259 266 276 284 286 286 288 291 293 295 297 298 297 296 296 297 299 302 304 305 306 307 308 308 307 307 307 308 308 308 310 312 312 311 312 312 312 311 307 302 300 298 296 294 291 287 285 286 283 279 275 273 273 274 275 276 277 277 276 274 269 265 261 256 253
232 252 246 236 250 260 258 256 259 265 275 273 276 282 287 288 287 284 274 260 253 261 273 281 285 286 285 287 293 297 296 297 299 299 298 298 300 303 305 306 306 306 307 307 306 304 304 304 305 305 305 307 308 307 307 308 308 308 308 304 300 297 295 294 293 291 286 283 283 282 278 273 270 270 270 271 272 273 273 272 271 268 265 262 258 255
223 237 243 243 246 250 254 259 261 260 262 272 279 284 287 289 287 279 271 265 265 273 280 283 283 285 287 290 294 296 296 298 300 300 299 299 301 303 304 304 304 304 305 305 304 303 303 303 303 302 303 304 305 304 303 304 304 304 304 302 299 296 294 293 293 290 285 282 280 280 278 273 269 267 268 269 270 270 270 268 267 266 264 261 258 256
Height
1516 1518 1520 1519 1515 1512 1511 1513 1510 1507 1509 1513 1516 1516 1515 1515 1509 1503 1498 1492 1493 1492 1486 1485 1478 1471 1473 1473 1472 1471 1470 1468 1462 1458 1456 1455 1453 1449 1447 1443 1439 1438 1434 1431 1431 1432 1434 1435 1436 1437 1437 1438 1439 1440 1441 1442 1442 1443 1445 1446 1447 1449 1450 1451 1452 1454 1456 1459 1461 1464 1466 1469 1472 1476 1479 1481 1483 1486 1488 1490 1493 1495 1497 1499 1500 1502
1515 1516 1516 1510 1505 1506 1507 1508 1508 1509 1512 1513 1515 1516 1515 1515 1506 1498 1497 1490 1492 1493 1482 1480 1476 1467 1468 1468 1467 1468 1466 1464 1458 1453 1450 1448 1448 1445 1441 1437 1433 1431 1429 1427 1426 1425 1427 1429 1431 1432 1432 1433 1434 1435 1436 1436 1437 1439 1440 1440 1442 1443 1444 1445 1446 1448 1450 1453 1455 1458 1461 1464 1468 1471 1473 1475 1477 1480 1483 1486 1488 1490 1493 1495 1497 1498
1516 1515 1512 1507 1504 1506 1507 1508 1510 1512 1513 1513 1516 1517 1513 1512 1504 1495 1493 1489 1491 1492 1481 1480 1474 1462 1463 1462 1461 1463 1459 1456 1453 1449 1446 1443 1443 1441 1435 1432 1428 1426 1424 1422 1421 1420 1422 1424 1426 1427 1427 1428 1429 1430 1431 1432 1433 1434 1435 1436 1437 1438 1439 1440 1441 1443 1446 1450 1453 1455 1458 1462 1464 1466 1469 1471 1473 1476 1478 1481 1484 1486 1489 1491 1493 1495
1513 1510 1506 1504 1505 1507 1507 1509 1511 1511 1512 1512 1512 1514 1509 1508 1504 1494 1489 1488 1490 1490 1482 1481 1470 1456 1458 1456 1453 1455 1449 1448 1450 1445 1443 1441 1437 1432 1428 1427 1426 1423 1420 1418 1417 1416 1417 1420 1421 1422 1423 1423 1425 1426 1426 1428 1428 1428 1429 1430 1432 1433 1434 1436 1438 1440 1444 1448 1451 1454 1456 1460 1462 1463 1465 1467 1469 1471 1474 1477 1480 1482 1484 1487 1489 1491
1503 1503 1501 1502 1505 1507 1508 1508 1511 1513 1509 1503 1504 1509 1504 1500 1500 1494 1490 1490 1491 1489 1483 1482 1466 1442 1444 1447 1444 1446 1445 1444 1445 1442 1440 1437 1430 1425 1424 1425 1424 1421 1418 1415 1414 1413 1413 1415 1416 1417 1419 1419 1420 1421 1421 1423 1423 1423 1425 1426 1427 1429 1430 1432 1435 1438 1441 1445 1447 1450 1453 1456 1458 1460 1461 1462 1463 1466 1469 1472 1474 1477 1480 1483 1485 1487
1502 1501 1500 1502 1504 1506 1508 1508 1510 1512 1505 1496 1496 1501 1496 1492 1494 1493 1494 1496 1495 1491 1485 1487 1473 1439 1431 1442 1440 1439 1441 1441 1440 1440 1436 1429 1423 1423 1423 1421 1419 1417 1416 1414 1413 1411 1409 1410 1412 1413 1414 1415 1415 1416 1418 1419 1420 1421 1422 1423 1424 1426 1427 1429 1432 1435 1438 1440 1443 1445 1447 1449 1451 1454 1455 1456 1459 1462 1465 1467 1469 1473 1476 1479 1481 1484
1501 1499 1498 1499 1501 1504 1510 1510 1506 1506 1504 1497 1492 1491 1489 1491 1494 1494 1496 1499 1496 1492 1487 1490 1486 1459 1435 1436 1438 1435 1437 1437 1435 1435 1429 1423 1422 1423 1420 1416 1415 1415 1413 1412 1411 1409 1407 1406 1408 1410 1411 1412 1412 1413 1415 1415 1416 1417 1418 1420 1421 1422 1424 1426 1429 1431 1434 1437 1439 1441 1442 1445 1446 1448 1450 1454 1458 1460 1462 1464 1466 1469 1472 1475 1478 1480
1496 1496 1497 1499 1501 1506 1510 1506 1498 1500 1505 1497 1489 1487 1487 1489 1493 1493 1496 1499 1495 1492 1491 1487 1489 1481 1452 1431 1432 1431 1432 1434 1430 1427 1424 1423 1423 1420 1416 1414 1413 1413 1411 1410 1408 1406 1406 1404 1404 1406 1408 1409 1409 1409 1410 1411 1412 1414 1415 1417 1418 1419 1421 1423 1425 1427 1430 1432 1435 1438 1440 1442 1443 1446 1450 1453 1456 1457 1458 1460 1462 1466 1468 1471 1474 1476
1492 1494 1496 1498 1503 1505 1502 1495 1492 1498 1500 1492 1489 1491 1490 1490 1492 1493 1494 1497 1500 1496 1492 1486 1488 1491 1462 1429 1430 1433 1431 1432 1426 1423 1423 1422 1421 1417 1415 1413 1411 1411 1409 1408 1406 1404 1404 1403 1402 1404 1405 1405 1405 1406 1406 1407 1409 1411 1412 1414 1414 1416 1417 1419 1422 1424 1426 1429 1432 1435 1437 1438 1441 1445 1448 1450 1452 1453 1455 1457 1459 1462 1465 1467 1470 1472
1491 1492 1493 1496 1499 1497 1491 1490 1492 1495 1495 1490 1492 1493 1492 1494 1493 1496 1493 1492 1499 1494 1486 1487 1487 1487 1460 1426 1430 1437 1431 1429 1423 1422 1422 1419 1418 1415 1413 1413 1410 1410 1408 1406 1405 1403 1402 1401 1401 1402 1402 1402 1402 1402 1403 1404 1406 1407 1408 1410 1411 1412 1414 1416 1418 1420 1423 1426 1428 1431 1433 1435 1438 1442 1444 1446 1448 1450 1451 1453 1455 1458 1461 1463 1465 1467
1490 1491 1492 1491 1489 1487 1486 1490 1492 1493 1493 1491 1493 1491 1492 1495 1493 1497 1496 1491 1498 1490 1478 1479 1479 1481 1463 1429 1427 1430 1422 1421 1419 1419 1420 1417 1416 1414 1412 1411 1409 1409 1408 1406 1404 1401 1400 1400 1399 1400 1400 1400 1400 1400 1400 1401 1402 1404 1405 1407 1408 1410 1411 1413 1415 1417 1420 1422 1424 1426 1429 1432 1435 1438 1440 1442 1444 1445 1447 1449 1451 1454 1457 1459 1462 1464
1489 1491 1489 1483 1481 1483 1485 1489 1491 1492 1493 1492 1494 1492 1493 1495 1492 1497 1498 1496 1500 1487 1471 1470 1472 1479 1462 1428 1423 1426 1420 1420 1418 1416 1417 1416 1415 1412 1411 1410 1407 1407 1406 1404 1402 1399 1399 1398 1398 1399 1398 1398 1398 1397 1398 1398 1399 1401 1402 1404 1406 1407 1409 1410 1413 1414 1417 1419 1420 1423 1425 1428 1431 1433 1435 1437 1439 1441 1443 1445 1447 1450 1453 1455 1458 1459
1484 1484 1482 1479 1479 1482 1483 1488 1491 1491 1492 1493 1496 1498 1502 1504 1500 1499 1499 1501 1499 1480 1468 1472 1475 1473 1447 1418 1421 1424 1418 1418 1416 1416 1416 1414 1413 1410 1408 1408 1407 1407 1403 1400 1401 1399 1398 1397 1397 1397 1396 1396 1396 1395 1396 1397 1398 1399 1400 1402 1403 1404 1406 1408 1410 1412 1414 1416 1418 1420 1423 1425 1428 1429 1431 1432 1434 1436 1438 1441 1443 1445 1447 1449 1451 1453
1479 1476 1479 1480 1478 1478 1480 1484 1487 1485 1488 1493 1492 1495 1503 1506 1505 1502 1499 1501 1493 1474 1470 1478 1476 1463 1437 1417 1417 1414 1410 1412 1412 1413 1413 1410 1410 1408 1407 1408 1406 1406 1402 1398 1398 1397 1396 1397 1397 1396 1395 1395 1395 1394 1395 1396 1397 1399 1400 1401 1402 1403 1405 1406 1408 1410 1412 1413 1415 1418 1421 1423 1425 1426 1428 1429 1431 1433 1435 1437 1438 1440 1442 1444 1446 1448
1485 1478 1474 1475 1472 1473 1476 1475 1475 1474 1480 1486 1483 1485 1491 1490 1492 1493 1487 1485 1477 1467 1473 1482 1472 1452 1432 1418 1413 1409 1409 1411 1409 1410 1409 1408 1408 1407 1407 1407 1406 1404 1401 1398 1395 1393 1393 1394 1396 1395 1394 1394 1395 1394 1395 1395 1396 1398 1399 1401 1401 1402 1404 1405 1406 1407 1409 1410 1413 1415 1418 1420 1422 1423 1425 1427 1429 1431 1432 1434 1435 1437 1439 1441 1443 1445
1488 1477 1468 1470 1469 1471 1473 1470 1470 1473 1478 1482 1482 1483 1482 1475 1475 1479 1474 1468 1469 1470 1472 1472 1460 1440 1424 1414 1410 1411 1411 1409 1408 1407 1406 1406 1405 1406 1406 1404 1403 1402 1399 1397 1394 1391 1391 1391 1393 1394 1393 1394 1394 1394 1395 1395 1396 1397 1398 1400 1400 1402 1403 1403 1404 1405 1406 1409 1410 1412 1414 1416 1417 1419 1421 1423 1425 1427 1428 1430 1432 1433 1436 1437 1440 1442
1482 1473 1465 1469 1471 1470 1472 1471 1471 1473 1475 1481 1484 1479 1472 1467 1467 1472 1471 1465 1470 1475 1462 1451 1445 1434 1424 1414 1407 1409 1408 1405 1406 1405 1404 1403 1401 1402 1402 1399 1399 1399 1397 1397 1394 1392 1391 1390 1390 1391 1392 1393 1393 1394 1395 1396 1396 1397 1398 1399 1400 1401 1401 1401 1402 1403 1404 1406 1407 1409 1410 1411 1413 1414 1416 1417 1420 1422 1424 1426 1428 1430 1432 1433 1435 1437
1475 1471 1464 1466 1470 1470 1472 1473 1472 1471 1472 1476 1478 1471 1466 1468 1467 1471 1476 1471 1472 1471 1454 1440 1437 1432 1430 1421 1407 1406 1406 1403 1403 1403 1404 1403 1399 1398 1398 1397 1398 1397 1397 1397 1395 1394 1392 1390 1390 1389 1391 1392 1393 1395 1396 1397 1397 1397 1398 1398 1398 1398 1399 1400 1401 1402 1403 1403 1404 1405 1405 1407 1408 1409 1411 1413 1415 1417 1419 1421 1423 1425 1427 1428 1430 1432
1476 1476 1467 1462 1467 1471 1470 1472 1471 1469 1470 1471 1471 1469 1470 1473 1469 1468 1474 1472 1469 1465 1452 1441 1435 1431 1430 1419 1406 1404 1404 1401 1401 1401 1402 1401 1397 1397 1396 1396 1397 1397 1397 1397 1396 1395 1394 1393 1391 1390 1391 1393 1394 1396 1396 1397 1398 1397 1397 1396 1396 1397 1397 1399 1400 1401 1401 1400 1400 1401 1402 1403 1404 1405 1407 1408 1410 1411 1413 1415 1417 1419 1422 1424 1425 1427
1477 1481 1476 1466 1466 1471 1471 1471 1471 1468 1469 1470 1471 1471 1471 1471 1468 1466 1466 1463 1461 1457 1450 1442 1436 1427 1420 1410 1403 1401 1399 1399 1399 1399 1400 1399 1396 1397 1397 1397 1397 1397 1397 1396 1396 1396 1395 1395 1394 1393 1394 1394 1395 1396 1397 1397 1398 1397 1397 1396 1395 1395 1395 1397 1398 1398 1398 1398 1398 1398 1399 1400 1401 1402 1403 1404 1405 1406 1407 1410 1412 1414 1416 1418 1420 1422
1476 1480 1480 1472 1467 1471 1469 1466 1465 1464 1465 1468 1470 1471 1470 1467 1465 1464 1461 1456 1454 1452 1447 1442 1436 1422 1411 1405 1399 1394 1395 1398 1398 1397 1399 1397 1396 1397 1397 1397 1397 1396 1396 1396 1397 1397 1396 1396 1396 1395 1395 1395 1396 1396 1397 1397 1397 1396 1396 1395 1394 1394 1393 1394 1394 1394 1394 1394 1394 1394 1395 1396 1397 1399 1400 1401 1402 1403 1404 1406 1408 1410 1412 1413 1415 1417
1476 1476 1476 1474 1471 1469 1463 1457 1457 1459 1458 1461 1463 1464 1465 1464 1465 1467 1461 1450 1446 1445 1439 1436 1432 1419 1409 1403 1395 1389 1393 1397 1398 1398 1397 1396 1396 1397 1397 1397 1397 1396 1397 1396 1397 1397 1397 1396 1396 1396 1396 1395 1396 1396 1396 1397 1396 1395 1394 1393 1392 1392 1391 1391 1391 1391 1390 1390 1390 1390 1391 1392 1393 1395 1396 1397 1398 1399 1400 1402 1404 1406 1407 1408 1410 1412
1470 1471 1472 1470 1467 1463 1456 1453 1455 1457 1456 1459 1461 1461 1461 1461 1464 1466 1460 1448 1442 1437 1431 1430 1428 1415 1404 1401 1395 1390 1392 1394 1395 1397 1396 1395 1397 1397 1397 1398 1398 1397 1397 1396 1395 1396 1396 1397 1396 1396 1396 1395 1394 1394 1395 1395 1394 1392 1391 1390 1389 1388 1388 1388 1388 1388 1388 1387 1386 1386 1387 1388 1388 1389 1391 1392 1393 1394 1395 1397 1399 1401 1402 1404 1406 1408
1466 1469 1470 1466 1462 1459 1456 1453 1453 1454 1458 1461 1459 1458 1459 1457 1454 1452 1448 1444 1442 1438 1433 1432 1426 1411 1401 1400 1397 1393 1392 1392 1393 1393 1395 1395 1396 1396 1397 1397 1397 1396 1395 1395 1395 1394 1394 1394 1394 1395 1394 1393 1393 1392 1392 1392 1391 1389 1388 1386 1386 1385 1385 1385 1385 1385 1385 1384 1383 1383 1383 1383 1383 1384 1385 1386 1388 1389 1390 1392 1394 1395 1397 1400 1402 1403
1464 1464 1466 1468 1466 1463 1460 1457 1453 1451 1455 1458 1454 1452 1452 1451 1450 1447 1444 1445 1443 1437 1435 1431 1420 1409 1403 1401 1399 1396 1393 1391 1390 1390 1394 1396 1395 1395 1396 1395 1395 1395 1394 1394 1394 1393 1392 1391 1391 1391 1390 1390 1390 1389 1389 1388 1387 1386 1385 1384 1383 1382 1382 1382 1382 1382 1381 1380 1380 1380 1379 1378 1378 1379 1379 1381 1383 1384 1386 1387 1388 1390 1392 1394 1397 1399
1463 1461 1462 1468 1468 1463 1459 1455 1450 1447 1448 1450 1449 1448 1446 1446 1448 1447 1445 1445 1438 1429 1426 1422 1412 1406 1404 1402 1400 1397 1394 1390 1387 1387 1391 1396 1395 1393 1395 1396 1396 1396 1395 1394 1393 1391 1391 1390 1388 1387 1386 1385 1385 1385 1385 1385 1384 1383 1382 1381 1379 1378 1378 1378 1378 1378 1377 1377 1376 1375 1374 1373 1373 1373 1374 1376 1377 1379 1381 1382 1383 1384 1386 1389 1391 1393
1467 1464 1461 1463 1462 1457 1453 1448 1445 1445 1446 1446 1445 1444 1443 1443 1444 1444 1444 1439 1430 1423 1419 1413 1408 1406 1406 1405 1402 1399 1396 1393 1387 1384 1386 1391 1394 1394 1396 1398 1398 1398 1397 1396 1394 1393 1392 1391 1389 1387 1385 1383 1382 1381 1381 1381 1381 1380 1378 1377 1375 1374 1373 1373 1373 1372 1372 1372 1370 1369 1368 1368 1367 1368 1368 1370 1371 1373 1375 1376 1378 1379 1381 1383 1385 1387
1467 1464 1459 1457 1456 1453 1450 1446 1445 1446 1445 1444 1443 1441 1441 1440 1439 1441 1440 1432 1426 1425 1417 1409 1409 1409 1408 1408 1404 1400 1399 1396 1394 1394 1395 1396 1397 1398 1399 1399 1399 1399 1399 1398 1397 1396 1395 1393 1391 1389 1386 1384 1382 1380 1379 1377 1376 1375 1374 1373 1372 1370 1368 1368 1367 1367 1366 1365 1364 1362 1362 1362 1363 1363 1363 1363 1365 1367 1368 1370 1372 1374 1376 1377 1379 1381
1466 1462 1455 1454 1452 1450 1449 1448 1447 1446 1444 1443 1444 1442 1440 1437 1436 1435 1430 1423 1425 1424 1414 1409 1410 1408 1406 1407 1406 1406 1407 1405 1405 1406 1404 1402 1401 1401 1401 1402 1403 1403 1403 1401 1400 1399 1397 1395 1392 1390 1388 1385 1383 1380 1378 1376 1374 1372 1371 1369 1367 1366 1364 1363 1363 1362 1361 1359 1357 1355 1356 1357 1358 1358 1358 1358 1358 1360 1362 1364 1366 1368 1370 1371 1373 1375
1465 1460 1453 1452 1452 1450 1450 1448 1446 1446 1445 1442 1442 1440 1437 1434 1431 1428 1423 1420 1421 1416 1410 1410 1410 1405 1407 1413 1415 1416 1416 1413 1410 1408 1405 1405 1407 1407 1407 1407 1408 1408 1407 1406 1404 1402 1399 1396 1393 1391 1387 1385 1383 1380 1378 1375 1372 1370 1368 1365 1363 1361 1359 1359 1357 1356 1355 1353 1351 1351 1352 1352 1352 1352 1352 1352 1353 1354 1356 1358 1360 1362 1364 1365 1367 1370
1463 1458 1451 1452 1455 1451 1448 1445 1444 1443 1442 1441 1438 1435 1434 1432 1428 1426 1423 1420 1418 1412 1408 1407 1404 1405 1414 1422 1422 1419 1416 1412 1410 1409 1410 1411 1412 1411 1411 1410 1411 1411 1410 1408 1405 1402 1399 1396 1393 1390 1388 1386 1383 1381 1378 1375 1372 1369 1365 1362 1359 1356 1354 1353 1351 1350 1348 1347 1347 1348 1348 1347 1346 1345 1345 1345 1347 1348 1350 1352 1354 1355 1357 1359 1361 1363
1462 1459 1455 1456 1457 1449 1443 1443 1440 1438 1439 1438 1435 1431 1427 1426 1424 1421 1417 1413 1411 1409 1406 1404 1407 1418 1426 1425 1421 1418 1415 1413 1413 1414 1414 1415 1414 1413 1412 1411 1411 1410 1409 1407 1404 1401 1398 1395 1392 1390 1388 1386 1383 1381 1378 1375 1371 1368 1364 1360 1356 1352 1350 1348 1346 1345 1343 1341 1342 1342 1342 1342 1341 1340 1339 1339 1341 1342 1344 1345 1347 1349 1350 1352 1354 1357
1462 1461 1460 1460 1456 1446 1442 1440 1439 1441 1442 1434 1427 1424 1420 1418 1417 1414 1412 1412 1413 1412 1413 1417 1425 1433 1432 1426 1422 1420 1418 1417 1417 1417 1417 1416 1415 1415 1414 1412 1411 1408 1407 1405 1403 1401 1398 1395 1393 1390 1388 1385 1383 1381 1379 1376 1372 1367 1362 1358 1354 1349 1346 1343 1341 1340 1338 1337 1336 1336 1336 1336 1336 1335 1334 1334 1335 1336 1338 1339 1340 1342 1343 1345 1348 1351
1457 1458 1459 1458 1455 1448 1441 1439 1442 1448 1442 1427 1422 1425 1424 1423 1424 1424 1425 1428 1426 1422 1425 1430 1434 1434 1432 1429 1427 1425 1423 1421 1419 1417 1417 1415 1414 1414 1413 1412 1410 1407 1404 1402 1401 1399 1397 1394 1392 1389 1387 1384 1382 1379 1376 1373 1369 1364 1359 1356 1352 1347 1344 1341 1338 1336 1335 1333 1333 1332 1331 1330 1330 1330 1330 1330 1330 1331 1332 1333 1335 1336 1338 1340 1343 1344
1452 1454 1453 1453 1452 1447 1442 1444 1449 1442 1427 1420 1424 1427 1426 1425 1427 1429 1432 1434 1432 1431 1433 1435 1435 1433 1432 1431 1429 1428 1425 1422 1418 1416 1415 1414 1413 1413 1412 1411 1409 1406 1403 1400 1398 1397 1395 1393 1390 1387 1385 1382 1379 1376 1373 1369 1365 1360 1356 1353 1350 1346 1343 1340 1337 1334 1332 1331 1330 1330 1329 1327 1326 1326 1326 1327 1327 1327 1328 1329 1331 1332 1334 1336 1337 1339
1449 1451 1451 1449 1447 1445 1442 1443 1439 1424 1414 1419 1426 1424 1423 1425 1426 1427 1430 1431 1432 1433 1433 1434 1434 1433 1432 1431 1429 1427 1423 1419 1416 1414 1414 1413 1413 1413 1411 1409 1407 1405 1402 1399 1396 1394 1393 1391 1389 1386 1383 1380 1377 1374 1370 1367 1363 1359 1354 1352 1350 1346 1343 1340 1337 1334 1331 1329 1328 1327 1327 1325 1324 1324 1324 1325 1325 1324 1325 1326 1327 1329 1330 1331 1333 1336
1446 1447 1448 1446 1440 1436 1434 1430 1422 1413 1413 1421 1427 1426 1428 1430 1429 1430 1432 1431 1432 1432 1431 1432 1432 1431 1430 1429 1426 1424 1420 1415 1412 1411 1412 1413 1412 1411 1410 1408 1406 1403 1399 1397 1394 1392 1391 1389 1387 1385 1382 1379 1376 1372 1368 1364 1361 1357 1353 1351 1348 1345 1342 1340 1337 1334 1332 1329 1327 1326 1325 1324 1323 1321 1321 1322 1322 1322 1322 1323 1324 1324 1325 1327 1328 1330
1441 1442 1443 1443 1437 1431 1431 1432 1428 1422 1419 1425 1432 1432 1430 1429 1429 1431 1434 1432 1431 1431 1430 1429 1429 1428 1427 1426 1424 1421 1417 1414 1410 1407 1407 1408 1407 1406 1406 1404 1402 1400 1396 1393 1391 1389 1387 1385 1383 1381 1380 1377 1374 1371 1367 1363 1359 1355 1351 1349 1347 1344 1341 1339 1336 1334 1332 1329 1327 1326 1324 1323 1321 1319 1319 1318 1318 1319 1320 1321 1321 1321 1321 1322 1323 1326
1438 1438 1439 1442 1440 1435 1436 1439 1434 1425 1420 1427 1433 1430 1427 1426 1425 1428 1431 1428 1427 1428 1428 1426 1426 1425 1424 1423 1422 1419 1417 1416 1412 1405 1403 1404 1403 1402 1401 1399 1397 1396 1393 1391 1389 1387 1384 1382 1380 1378 1377 1375 1372 1369 1365 1360 1356 1352 1349 1347 1345 1343 1341 1338 1336 1333 1331 1329 1327 1325 1323 1322 1319 1317 1317 1315 1315 1316 1317 1318 1319 1319 1319 1319 1320 1322
1436 1437 1438 1440 1440 1437 1437 1438 1432 1422 1420 1426 1428 1425 1425 1423 1422 1427 1428 1422 1421 1425 1425 1423 1423 1422 1420 1420 1420 1418 1418 1417 1411 1404 1402 1402 1401 1399 1399 1396 1394 1392 1391 1389 1388 1385 1383 1380 1378 1375 1373 1371 1369 1366 1363 1359 1354 1350 1347 1345 1343 1341 1340 1338 1335 1333 1331 1328 1326 1324 1321 1319 1317 1315 1314 1313 1313 1313 1314 1314 1316 1316 1317 1317 1318 1319
1437 1437 1437 1438 1438 1437 1436 1436 1432 1423 1420 1424 1425 1423 1422 1420 1421 1425 1423 1417 1418 1421 1420 1420 1420 1419 1418 1418 1417 1416 1416 1414 1410 1406 1402 1401 1399 1398 1397 1395 1392 1391 1389 1387 1385 1382 1380 1377 1375 1373 1371 1370 1368 1365 1362 1357 1352 1348 1345 1343 1341 1340 1339 1337 1334 1332 1330 1327 1325 1322 1319 1317 1315 1313 1311 1310 1310 1311 1311 1311 1312 1313 1314 1315 1315 1316
1437 1437 1436 1435 1436 1436 1434 1435 1435 1427 1420 1422 1423 1420 1419 1422 1424 1420 1416 1415 1418 1417 1416 1417 1416 1415 1415 1415 1413 1412 1411 1409 1408 1405 1402 1400 1398 1395 1393 1392 1390 1388 1386 1384 1382 1380 1376 1373 1370 1369 1367 1367 1366 1364 1360 1355 1349 1345 1343 1341 1339 1338 1337 1335 1332 1330 1328 1325 1323 1320 1317 1315 1313 1311 1309 1308 1308 1308 1308 1309 1310 1311 1312 1313 1313 1314
1433 1435 1434 1431 1431 1434 1435 1436 1437 1430 1420 1418 1420 1419 1418 1422 1421 1416 1413 1414 1415 1414 1414 1414 1413 1412 1413 1411 1409 1409 1407 1405 1404 1402 1399 1397 1394 1392 1390 1388 1386 1384 1382 1380 1378 1376 1373 1369 1366 1364 1363 1363 1363 1361 1357 1352 1346 1342 1340 1338 1337 1336 1334 1332 1329 1327 1325 1323 1321 1318 1316 1313 1311 1310 1308 1306 1306 1306 1306 1307 1307 1308 1309 1311 1312 1312
1431 1432 1434 1430 1427 1431 1434 1430 1426 1421 1416 1416 1419 1419 1418 1417 1415 1413 1413 1412 1411 1411 1411 1410 1410 1410 1409 1407 1406 1405 1403 1402 1400 1397 1396 1394 1391 1389 1387 1385 1383 1381 1379 1376 1374 1372 1370 1366 1363 1361 1360 1359 1359 1356 1353 1348 1343 1338 1336 1335 1335 1333 1331 1328 1326 1324 1322 1320 1319 1317 1315 1312 1310 1308 1306 1304 1303 1303 1303 1304 1304 1305 1306 1308 1309 1309
1427 1426 1429 1428 1425 1425 1425 1420 1415 1415 1415 1415 1415 1415 1413 1412 1411 1411 1411 1409 1408 1408 1408 1407 1407 1406 1405 1405 1404 1402 1400 1398 1396 1394 1393 1390 1388 1386 1384 1381 1380 1378 1375 1374 1371 1369 1366 1363 1360 1357 1354 1354 1353 1351 1348 1345 1340 1335 1331 1331 1331 1329 1326 1324 1322 1320 1318 1317 1315 1314 1312 1310 1308 1305 1303 1302 1301 1300 1300 1300 1301 1303 1303 1304 1305 1305
1425 1424 1426 1426 1422 1420 1419 1416 1414 1414 1413 1411 1411 1411 1410 1409 1408 1408 1407 1406 1405 1405 1404 1404 1403 1402 1402 1401 1400 1398 1397 1395 1393 1391 1389 1387 1385 1383 1380 1378 1376 1374 1372 1370 1367 1365 1362 1359 1356 1352 1348 1346 1345 1345 1343 1341 1338 1333 1329 1327 1326 1325 1323 1320 1317 1315 1314 1312 1311 1310 1308 1306 1304 1303 1301 1299 1298 1297 1297 1297 1298 1299 1300 1301 1301 1301
1424 1424 1424 1421 1420 1421 1420 1414 1411 1411 1409 1408 1408 1407 1406 1406 1405 1405 1404 1403 1402 1401 1401 1400 1400 1399 1398 1397 1396 1394 1393 1391 1389 1387 1385 1383 1381 1379 1377 1374 1372 1370 1368 1365 1362 1360 1357 1354 1351 1348 1344 1340 1338 1337 1335 1334 1333 1331 1327 1324 1322 1320 1318 1316 1313 1310 1308 1307 1305 1304 1303 1301 1300 1299 1298 1296 1295 1294 1293 1293 1294 1295 1295 1296 1297 1297
1421 1421 1421 1418 1418 1418 1415 1409 1407 1407 1406 1405 1405 1404 1402 1402 1402 1401 1400 1399 1398 1398 1398 1397 1397 1396 1394 1393 1392 1390 1388 1387 1385 1383 1380 1379 1376 1374 1372 1369 1366 1364 1362 1360 1358 1355 1351 1348 1345 1343 1340 1336 1333 1331 1328 1326 1326 1325 1323 1321 1318 1315 1312 1310 1308 1306 1303 1300 1299 1298 1297 1296 1295 1295 1294 1292 1291 1290 1289 1289 1290 1290 1291 1291 1293 1293
1419 1418 1416 1415 1415 1414 1410 1406 1405 1404 1402 1402 1401 1399 1398 1398 1398 1397 1396 1396 1395 1395 1394 1393 1393 1392 1390 1389 1388 1386 1384 1382 1380 1378 1377 1374 1371 1369 1366 1363 1360 1358 1355 1353 1351 1349 1346 1343 1339 1336 1333 1330 1328 1325 1322 1319 1318 1318 1317 1315 1313 1310 1306 1303 1302 1300 1297 1294 1292 1290 1290 1290 1290 1289 1289 1287 1286 1285 1285 1285 1285 1286 1286 1287 1289 1290
1417 1414 1411 1413 1415 1412 1406 1402 1401 1401 1400 1398 1397 1396 1395 1395 1395 1394 1393 1392 1392 1392 1391 1390 1389 1388 1386 1385 1384 1382 1380 1377 1375 1375 1372 1369 1366 1363 1360 1358 1355 1351 1348 1346 1344 1342 1340 1337 1333 1330 1326 1323 1321 1319 1316 1313 1312 1311 1310 1309 1306 1304 1300 1297 1294 1292 1289 1287 1285 1283 1283 1284 1284 1284 1283 1282 1281 1280 1280 1280 1280 1281 1282 1283 1284 1286
1409 1407 1406 1408 1407 1402 1397 1396 1397 1398 1397 1395 1394 1394 1393 1392 1391 1390 1390 1389 1389 1388 1387 1386 1384 1383 1382 1381 1380 1378 1375 1373 1371 1370 1367 1364 1362 1359 1355 1353 1350 1345 1342 1340 1337 1334 1332 1329 1326 1323 1319 1315 1314 1311 1308 1307 1305 1304 1302 1301 1299 1297 1294 1291 1287 1283 1281 1280 1278 1276 1276 1277 1277 1277 1277 1276 1275 1275 1275 1275 1275 1276 1277 1278 1279 1281